Location: Dal�� Lhota
(48.7500°N, 14.0167°E)
Time: 09:59:34
(UTC+00:00)

Courier 1B - Visible Passes

Search period start: 31 July 2021 00:00
Search period end: 10 August 2021 00:00
Orbit: 962 x 1209 km, 28.3° (Epoch: 30 July)

Date Brightness Start Highest point End Pass type
(mag) Time Alt. Az. Time Alt. Az. Time Alt. Az.
31 Jul 9.4 19:41:01 10° SSW 19:44:57 15° S 19:48:38 10° SSE visible
31 Jul 9.7 21:34:45 10° SW 21:35:31 11° SSW 21:35:31 11° SSW visible
01 Aug 9.4 20:40:30 10° SW 20:44:10 14° S 20:44:56 14° S visible
02 Aug 9.5 19:46:34 10° SW 19:50:38 15° S 19:54:18 11° SSE visible
03 Aug 9.6 20:47:12 10° SW 20:49:49 12° SSW 20:50:32 12° S visible
04 Aug 9.6 19:52:45 10° SW 19:56:17 14° S 19:59:48 10° SSE visible
06 Aug 9.8 20:00:07 10° SSW 20:01:54 11° SSW 20:03:42 10° S visible
07 Aug 9.7 19:05:14 10° SW 19:08:23 13° SSW 19:11:31 10° S visible
